Change the Weather History Date:

Friday, September 20, 2013

  Actual Average Record
Temperature  
Mean Temperature 65 °F 69 °F  
Max Temperature 74 °F 84 °F 99 °F (2005)
Min Temperature 55 °F 54 °F 45 °F (2002)
Degree Days  
Heating Degree Days 0 2  
Month to date heating degree days 0 12  
Since 1 July heating degree days 0 13  
Cooling Degree Days 0 5  
Month to date cooling degree days 227 165  
Year to date cooling degree days 1778 1414  
Growing Degree Days 15 (Base 50)    
Moisture  
Dew Point 51 °F    
Average Humidity 61    
Maximum Humidity 86    
Minimum Humidity 35    
Precipitation  
Precipitation T in 0.06 in 1.37 in (2003)
Month to date precipitation 2.29 1.22  
Year to date precipitation 12.84 15.99  
Snow  
Snow 0.00 in - - ()
Month to date snowfall 0.0  
Since 1 July snowfall 0.0  
Since 1 September snowfall 0.0  
Snow Depth 0.00 in    
Sea Level Pressure  
Sea Level Pressure 30.03 in    
Wind  
Wind Speed 9 mph (ENE)    
Max Wind Speed 18 mph    
Max Gust Speed 24 mph    
Visibility 10 miles    
Events Rain    
T = Trace of Precipitation, MM = Missing Value Source: NWS Daily Summary

Daily Weather History Graph

Daily Weather History Graph

Search for Another Location

Airport or City:

Trip Planner

Search our weather history database for the weather conditions in past years. The results will help you decide how hot, cold, wet, or windy it might be!

Date:

Astronomy

Sep. 20, 2013 Rise Set
Actual Time 7:32 AM CDT 7:45 PM CDT
Civil Twilight 7:06 AM CDT 8:11 PM CDT
Nautical Twilight 6:36 AM CDT 8:41 PM CDT
Astronomical Twilight 6:05 AM CDT 9:12 PM CDT
Moon 8:24 PM CDT (9/20) 8:46 AM CDT (9/20)
Length of Visible Light 13h 04m
Length of Day
12h 12m
Full, 98% of the Moon is Illuminated
Sep 20
Full
Sep 26
Last Quarter
Oct 4
New
Oct 11
First Quarter
Oct 18
Full

Hourly Weather History & Observations

Time (CDT) Temp. Dew Point Humidity Pressure Visibility Wind Dir Wind Speed Gust Speed Precip Events Conditions
12:24 AM 68.0 °F 57.2 °F 68% 30.09 in 10.0 mi NE 11.5 mph 20.7 mph N/A   Overcast
12:31 AM 68.0 °F 57.2 °F 68% 30.09 in 10.0 mi NE 13.8 mph - N/A   Overcast
12:53 AM 68.0 °F 57.0 °F 68% 29.97 in 10.0 mi NE 15.0 mph 21.9 mph N/A   Overcast
1:04 AM 66.2 °F 55.4 °F 68% 30.10 in 10.0 mi NE 11.5 mph 23.0 mph N/A   Overcast
1:53 AM 66.0 °F 55.9 °F 70% 29.97 in 10.0 mi NE 15.0 mph 20.7 mph N/A   Overcast
2:53 AM 64.9 °F 55.0 °F 70% 29.97 in 10.0 mi NE 12.7 mph 23.0 mph N/A   Overcast
3:53 AM 62.1 °F 54.0 °F 75% 29.99 in 10.0 mi NNE 17.3 mph 24.2 mph N/A   Overcast
4:32 AM 60.8 °F 53.6 °F 77% 30.12 in 10.0 mi NNE 13.8 mph 21.9 mph N/A   Overcast
4:53 AM 61.0 °F 51.1 °F 70% 29.99 in 10.0 mi NNE 12.7 mph - N/A   Overcast
5:53 AM 57.0 °F 52.0 °F 83% 30.00 in 10.0 mi NNE 13.8 mph 20.7 mph N/A   Overcast
6:53 AM 57.0 °F 54.0 °F 89% 30.04 in 10.0 mi NNE 10.4 mph - 0.00 in Rain Light Rain
7:53 AM 57.0 °F 53.1 °F 87% 30.07 in 10.0 mi North 6.9 mph - 0.00 in   Mostly Cloudy
8:53 AM 57.9 °F 54.0 °F 87% 30.06 in 10.0 mi NNE 9.2 mph - N/A   Overcast
9:53 AM 61.0 °F 52.0 °F 72% 30.08 in 10.0 mi NE 13.8 mph - N/A   Clear
10:53 AM 62.1 °F 50.0 °F 65% 30.09 in 10.0 mi ENE 11.5 mph - N/A   Clear
11:53 AM 64.9 °F 52.0 °F 63% 30.09 in 10.0 mi ENE 9.2 mph - N/A   Partly Cloudy
12:53 PM 66.9 °F 51.1 °F 57% 30.06 in 10.0 mi Variable 4.6 mph - N/A   Clear
1:53 PM 70.0 °F 48.9 °F 47% 30.04 in 10.0 mi NE 6.9 mph - N/A   Clear
2:53 PM 72.0 °F 46.9 °F 41% 30.01 in 10.0 mi Variable 3.5 mph - N/A   Clear
3:53 PM 72.0 °F 48.0 °F 43% 30.00 in 10.0 mi Variable 3.5 mph - N/A   Clear
4:53 PM 72.0 °F 46.0 °F 40% 29.99 in 10.0 mi Variable 4.6 mph - N/A   Clear
5:53 PM 73.0 °F 44.1 °F 35% 29.99 in 10.0 mi East 8.1 mph - N/A   Clear
6:53 PM 70.0 °F 46.0 °F 42% 29.99 in 10.0 mi SE 5.8 mph - N/A   Clear
7:53 PM 66.0 °F 46.0 °F 48% 30.01 in 10.0 mi SSE 5.8 mph - N/A   Clear
8:53 PM 63.0 °F 48.0 °F 58% 30.03 in 10.0 mi SSE 5.8 mph - N/A   Clear
9:53 PM 60.1 °F 51.1 °F 72% 30.04 in 10.0 mi South 4.6 mph - N/A   Clear
10:53 PM 59.0 °F 50.0 °F 72% 30.04 in 10.0 mi SSE 6.9 mph - N/A   Clear
11:53 PM 57.9 °F 50.0 °F 75% 30.03 in 10.0 mi South 5.8 mph - N/A   Clear